User: anonymous   Login
Location: Unspecified
(0.0000°N, 0.0000°E)
Time: 11:50:46
(UTC+00:00)
Language:

PHOENIX - Orbit

View from above orbital plane
View from above orbital plane
View from above satellite
View from above satellite

Ground track
Ground track

The orbit data is extracted from the following two-line orbital elements,

1 42706U 98067LP  18168.93481400  .00016426  00000-0  14312-3 0  9995
2 42706  51.6362 352.7437 0001638 179.0629 181.0371 15.69164276 62025
Epoch (UTC): 17 June 2018 22:26:07
Eccentricity: 0.0001638
inclination: 51.6362°
perigee height: 360 km
apogee height: 362 km
right ascension of ascending node: 352.7437°
argument of perigee: 179.0629°
revolutions per day: 15.69164276
mean anomaly at epoch: 181.0371°
orbit number at epoch: 6202

The dashed part of the orbit path shows where the satellite is in the earth's shadow,  

DLR